Mc Donough, Georgia, United States
Lat: 33.45N, Lon: 84.15W
Wx Zone: GAZ057
Local Info
Past Weather Observations for Today

NOTE: This archive is for the closest National Weather Service station to Mc Donough. Information may differ from the station used for current weather conditions.

Click here for Long-term Archive

Time Weather Temperature Dewpoint Humidity Pressure Winds Precip Visibility
14:52
Mostly Cloudy
79°F / 26°C 72°F / 22°C 79% 29.98 in
(1015 mb)
SSW 4.6 mph
(SSW 7 kph)
0.20 in
(5.08 mm)
10SM
14:38
Mostly Cloudy
79°F / 26°C 72°F / 22°C 79% 29.98 in
(1015 mb)
SW 6.9 mph
(SW 11 kph)
0.20 in
(5.08 mm)
9SM
14:16
Mostly Cloudy
Thunder Storms
73°F / 23°C 70°F / 21°C 89% 29.98 in
(1015 mb)
SW 5.8 mph
(SW 9 kph)
0.20 in
(5.08 mm)
9SM
14:05
Mostly Cloudy
Thunder Storms
75°F / 24°C 72°F / 22°C 89% 30.01 in
(1016 mb)
SSW 12.7 mph
(SSW 20 kph)
0.20 in
(5.08 mm)
9SM
13:45
Mostly Cloudy
Thunder Storms
79°F / 26°C 73°F / 23°C 84% 29.98 in
(1015 mb)
NW 9.2 mph
(NW 15 kph)
0.19 in
(4.83 mm)
9SM
13:33
Overcast
Thunder Storms
77°F / 25°C 72°F / 22°C 83% 29.98 in
(1015 mb)
Variable 3.5 mph
(Variable 6 kph)
0.19 in
(4.83 mm)
6SM
13:29
Overcast
Thunder Storms
77°F / 25°C 72°F / 22°C 83% 30.01 in
(1016 mb)
NW 4.6 mph
(NW 7 kph)
0.13 in
(3.30 mm)
5SM
13:25
Overcast
Thunder Storms
79°F / 26°C 72°F / 22°C 79% 29.98 in
(1015 mb)
WNW 15 mph
(WNW 24 kph)
0.00 in
(0.00 mm)
6SM
13:23
Overcast
Thunder Storms
81°F / 27°C 73°F / 23°C 79% 29.98 in
(1015 mb)
WNW 17.3 mph
(WNW 28 kph)
0.00 in
(0.00 mm)
2SM
13:09
Mostly Cloudy
Thunder Storms
86°F / 30°C 70°F / 21°C 59% 29.98 in
(1015 mb)
W 12.7 mph
(W 20 kph)
- 10SM
12:52
Mostly Cloudy
Partly Cloudy
86°F / 30°C 70°F / 21°C 59% 29.98 in
(1015 mb)
W 11.5 mph
(W 19 kph)
- 10SM
12:34
Partly Cloudy
84°F / 29°C 70°F / 21°C 62% 29.98 in
(1015 mb)
SSW 9.2 mph
(SSW 15 kph)
- 10SM
11:52
Partly Cloudy
84°F / 29°C 70°F / 21°C 62% 30.01 in
(1016 mb)
SW 15 mph
(SW 24 kph)
- 10SM
10:52
Partly Cloudy
82°F / 28°C 72°F / 22°C 70% 30.01 in
(1016 mb)
SSW 11.5 mph
(SSW 19 kph)
- 10SM
09:52
Partly Cloudy
82°F / 28°C 72°F / 22°C 70% 30.04 in
(1017 mb)
SSW 9.2 mph
(SSW 15 kph)
- 10SM
08:52
Mostly Cloudy
79°F / 26°C 72°F / 22°C 79% 30.04 in
(1017 mb)
W 6.9 mph
(W 11 kph)
- 10SM
07:52
Mostly Cloudy
77°F / 25°C 72°F / 22°C 83% 30.01 in
(1016 mb)
SSW 3.5 mph
(SSW 6 kph)
- 10SM
06:52
Partly Cloudy
73°F / 23°C 70°F / 21°C 89% 30.01 in
(1016 mb)
SSW 5.8 mph
(SSW 9 kph)
- 10SM
05:52
Partly Cloudy
72°F / 22°C 70°F / 21°C 94% 30.01 in
(1016 mb)
SSW 5.8 mph
(SSW 9 kph)
- 10SM
04:52
Partly Cloudy
72°F / 22°C 70°F / 21°C 94% 30.01 in
(1016 mb)
W 3.5 mph
(W 6 kph)
- 10SM
03:52
Partly Cloudy
72°F / 22°C 70°F / 21°C 94% 29.98 in
(1015 mb)
W 3.5 mph
(W 6 kph)
- 10SM
02:52
Partly Cloudy
73°F / 23°C 70°F / 21°C 89% 29.98 in
(1015 mb)
Calm - 10SM
01:52
Partly Cloudy
75°F / 24°C 72°F / 22°C 89% 30.01 in
(1016 mb)
SSW 3.5 mph
(SSW 6 kph)
- 10SM
00:52
Partly Cloudy
75°F / 24°C 72°F / 22°C 89% 30.01 in
(1016 mb)
WNW 4.6 mph
(WNW 7 kph)
- 10SM
Time Weather Temperature Dewpoint Humidity Pressure Winds Precip Visibility


Weather for websites

WeatherForYou.com, LLC is not responsible for any damages or problems caused by this service. Current weather conditions are obtained from the closest station including government and personal stations which may have varying degrees of accuracy. Weather forecasts are derived from the NOAA NDFD. Like all things, this site belongs to Jesus Christ... He just trusts me to maintain it. If you have any questions or comments email webmaster@weatherforyou.com

Copyright © 2014, WeatherForYou.com LLC. All rights reserved.